Location: Boiro
(42.6475°N, 8.8834°W)
Time: 03:43:05
(UTC+01:00)

X-37B - Pass Details

Date: 23 October 2021
Orbit: 330 x 341 km, 45.0° (Epoch: 20 November)

Event Time Altitude Azimuth Distance (km) Brightness Sun altitude
Rises 20:51:04 0° 286° (WNW) 2,127 5.8 -13.6°
Reaches altitude 10° 20:53:05 10° 288° (WNW) 1,286 4.4 -14.0°
Maximum altitude 20:55:57 74° 13° (NNE) 358 0.3 -14.5°
Enters shadow 20:56:52 39° 90° (E) 527 0.7 -14.7°
